TimeCDT,TemperatureF,Dew PointF,Humidity,Sea Level PressureIn,VisibilityMPH,Wind Direction,Wind SpeedMPH,Gust SpeedMPH,PrecipitationIn,Events,Conditions,WindDirDegrees,DateUTC
12:53 AM,70.0,66.0,87,29.98,10.0,Calm,Calm,-,N/A,,Clear,0,2012-10-03 05:53:00
1:53 AM,69.1,66.0,90,29.98,10.0,ESE,3.5,-,N/A,,Clear,120,2012-10-03 06:53:00
2:53 AM,69.1,64.9,87,29.98,10.0,Calm,Calm,-,N/A,,Clear,0,2012-10-03 07:53:00
3:53 AM,68.0,64.9,90,29.97,10.0,SE,3.5,-,N/A,,Clear,130,2012-10-03 08:53:00
4:53 AM,69.1,64.0,84,29.96,10.0,SE,3.5,-,N/A,,Clear,140,2012-10-03 09:53:00
5:53 AM,69.1,63.0,81,29.97,10.0,SE,4.6,-,N/A,,Clear,130,2012-10-03 10:53:00
6:53 AM,69.1,64.0,84,29.97,10.0,SE,5.8,-,N/A,,Clear,130,2012-10-03 11:53:00
7:53 AM,70.0,66.0,87,29.97,10.0,SE,3.5,-,N/A,,Clear,140,2012-10-03 12:53:00
8:53 AM,75.9,69.1,79,29.98,10.0,SSE,5.8,-,N/A,,Clear,150,2012-10-03 13:53:00
9:53 AM,82.9,69.1,63,29.99,10.0,SSE,12.7,-,N/A,,Clear,150,2012-10-03 14:53:00
10:53 AM,86.0,69.1,57,30.00,10.0,South,10.4,18.4,N/A,,Partly Cloudy,170,2012-10-03 15:53:00
11:53 AM,89.1,69.1,52,30.00,10.0,SSE,13.8,-,N/A,,Scattered Clouds,160,2012-10-03 16:53:00
12:53 PM,90.0,68.0,48,29.98,10.0,South,16.1,-,N/A,,Partly Cloudy,170,2012-10-03 17:53:00
1:53 PM,89.1,68.0,50,29.95,10.0,South,20.7,26.5,N/A,,Scattered Clouds,170,2012-10-03 18:53:00
2:53 PM,91.0,69.1,48,29.93,10.0,SSE,15.0,-,N/A,,Partly Cloudy,160,2012-10-03 19:53:00
3:53 PM,90.0,68.0,48,29.92,10.0,SSE,20.7,28.8,N/A,,Partly Cloudy,160,2012-10-03 20:53:00
4:53 PM,89.1,69.1,52,29.92,10.0,SSE,17.3,28.8,N/A,,Clear,150,2012-10-03 21:53:00
5:53 PM,86.0,71.1,61,29.93,10.0,SSE,18.4,24.2,N/A,,Clear,150,2012-10-03 22:53:00
6:53 PM,82.9,71.1,67,29.94,10.0,SSE,16.1,-,N/A,,Clear,150,2012-10-03 23:53:00
7:53 PM,81.0,73.0,77,29.95,10.0,SSE,11.5,-,N/A,,Clear,150,2012-10-04 00:53:00
8:53 PM,80.1,72.0,76,29.96,10.0,SE,10.4,-,N/A,,Clear,140,2012-10-04 01:53:00
9:53 PM,79.0,72.0,79,29.98,10.0,SSE,10.4,-,N/A,,Clear,150,2012-10-04 02:53:00
10:53 PM,79.0,73.9,84,30.00,10.0,SSE,10.4,-,N/A,,Clear,150,2012-10-04 03:53:00
11:53 PM,79.0,73.9,84,30.01,10.0,SSE,10.4,-,N/A,,Clear,160,2012-10-04 04:53:00